Tracking 29892 objects as of 21-Nov-2024
HD Live streaming from Space Station
objects crossing your sky now

COSMOS 1162

Track COSMOS 1162 now!
10-day predictions
COSMOS 1162 is classified as:


NORAD ID: 11697
Int'l Code: 1980-012G
Perigee: 1,479.1 km
Apogee: 1,525.2 km
Inclination: 74.0 °
Period: 115.9 minutes
Semi major axis: 7873 km
RCS: 0.6669 m2 (medium)
Launch date: February 11, 1980
Source: Commonwealth of Independent States (former USSR) (CIS)
Launch site: PLESETSK MISSILE AND SPACE COMPLEX (PKMTR)
Your satellite tracking list
Your tracking list is empty




NASA's NSSDC Master Catalog

Two Line Element Set (TLE):
1 11697U 80012G   24325.66713178 -.00000011  00000-0  29038-4 0  9999
2 11697  74.0199 296.5353 0029282 142.6023 328.2746 12.42730862 31247
Source of the keplerian elements: AFSPC